This is the latest recevied weather packets stored in our database for station/object KE8WMS. If no packets are shown the sender has not sent any weather packets the latest 10 day(s).
| Time | Temp. | Humidity | Pressure | Rain* | Wind** | Luminosity | Snow |
|---|---|---|---|---|---|---|---|
| 1777931888 | 21.67° C | 57% | 999.7 hPa | 0 mm | - | 78 W/m² | - |
| 1777931583 | 22.78° C | 55% | 999.8 hPa | 0 mm | - | 107 W/m² | - |
| 1777931279 | 23.33° C | 52% | 999.6 hPa | 0 mm | - | 156 W/m² | - |
| 1777930976 | 23.33° C | 53% | 999.3 hPa | 0 mm | - | 157 W/m² | - |
| 1777930673 | 22.78° C | 52% | 999.6 hPa | 0 mm | - | 346 W/m² | - |
| 1777930369 | 22.78° C | 53% | 999.4 hPa | 0 mm | - | 86 W/m² | - |
| 1777930066 | 23.33° C | 53% | 999.5 hPa | 0 mm | - | 334 W/m² | - |
| 1777929763 | 23.89° C | 51% | 999.4 hPa | 0 mm | - | 336 W/m² | - |
| 1777929460 | 23.33° C | 50% | 999.6 hPa | 0 mm | - | 365 W/m² | - |
| 1777929156 | 23.89° C | 51% | 999.7 hPa | 0 mm | - | 136 W/m² | - |
| 1777928854 | 23.89° C | 49% | 1000 hPa | 0 mm | - | 403 W/m² | - |
| 1777928551 | 23.89° C | 49% | 999.9 hPa | 0 mm | - | 412 W/m² | - |
| 1777928248 | 23.33° C | 51% | 999.9 hPa | 0 mm | - | 499 W/m² | - |
| 1777927945 | 23.33° C | 50% | 1000.2 hPa | 0 mm | - | 483 W/m² | - |
| 1777927644 | 23.33° C | 51% | 1000.2 hPa | 0 mm | - | 166 W/m² | - |
| 1777927342 | 23.89° C | 48% | 1000.1 hPa | 0 mm | - | 315 W/m² | - |
| 1777927041 | 23.89° C | 51% | 1000.2 hPa | 0 mm | - | 259 W/m² | - |
| 1777926738 | 23.89° C | 47% | 1000.2 hPa | 0 mm | - | 442 W/m² | - |
| 1777926437 | 23.89° C | 49% | 1000.2 hPa | 0 mm | - | 510 W/m² | - |
| 1777926135 | 23.89° C | 49% | 1000.3 hPa | 0 mm | - | 155 W/m² | - |
| 1777925832 | 23.89° C | 49% | 1000.5 hPa | 0 mm | - | 526 W/m² | - |
| 1777925529 | 23.89° C | 48% | 1000.5 hPa | 0 mm | - | 533 W/m² | - |
| 1777925227 | 23.33° C | 48% | 1000.7 hPa | 0 mm | - | 545 W/m² | - |
| 1777924922 | 23.89° C | 49% | 1000.7 hPa | 0 mm | - | 558 W/m² | - |
| 1777924619 | 23.89° C | 49% | 1000.9 hPa | 0 mm | - | 568 W/m² | - |
* Rain latest hour (hover to see other rain measurements)
** Current wind speed in m/s (hover to see current wind gust speed)